Weather History for Siemreap, Cambodia

Change the Weather History Date:

Saturday, January 19, 2013

  Actual Average Record
Temperature  
Mean Temperature 75 °F -  
Max Temperature 86 °F - - ()
Min Temperature 64 °F - - ()
Cooling Degree Days 10    
Growing Degree Days 25 (Base 50)    
Moisture  
Dew Point 60 °F    
Average Humidity 59    
Maximum Humidity 94    
Minimum Humidity 31    
Precipitation  
Precipitation 0.00 in - - ()
Sea Level Pressure  
Sea Level Pressure 29.95 in    
Wind  
Wind Speed 3 mph ()    
Max Wind Speed 10 mph    
Max Gust Speed -    
Visibility 4.6 miles    
Events      
T = Trace of Precipitation, MM = Missing Value Source: Averaged Metar Reports

Daily Weather History Graph

Daily Weather History Graph

Search for Another Location

Airport:

Trip Planner

Search our weather history database for the weather conditions in past years. The results will help you decide how hot, cold, wet, or windy it might be!

Date:

Astronomy

Jan. 19, 2013 Rise Set
Actual Time 6:31 AM ICT 5:58 PM ICT
Civil Twilight 6:09 AM ICT 6:21 PM ICT
Nautical Twilight 5:43 AM ICT 6:47 PM ICT
Astronomical Twilight 5:17 AM ICT 7:13 PM ICT
Moon 11:51 AM ICT (1/19) No Moon Set
Length of Visible Light 12h 12m
Length of Day
11h 27m
First Quarter, 52% of the Moon is Illuminated
Jan 19
First Quarter
Jan 27
Full
Feb 3
Last Quarter
Feb 10
New
Feb 18
First Quarter

Hourly Weather History & Observations

Time (ICT) Temp. Heat Index Dew Point Humidity Pressure Visibility Wind Dir Wind Speed Gust Speed Precip Events Conditions
12:00 AM 71.6 °F - 64.4 °F 78% 29.95 in 3.1 mi NNE 5.8 mph - N/A   Mist
12:30 AM 71.6 °F - 59.0 °F 64% 29.95 in 3.1 mi NE 4.6 mph - N/A   Mist
1:00 AM 69.8 °F - 60.8 °F 73% 29.95 in 3.1 mi NNE 4.6 mph - N/A   Mist
7:00 AM 64.4 °F - 60.8 °F 88% 30.01 in 1.9 mi Calm Calm - N/A   Mist
7:30 AM 64.4 °F - 62.6 °F 94% 30.01 in 1.9 mi Variable 1.2 mph - N/A   Mist
8:00 AM 68.0 °F - 60.8 °F 78% 30.01 in 1.9 mi Variable 1.2 mph - N/A   Mist
8:30 AM 73.4 °F - 60.8 °F 65% 30.04 in 3.1 mi Variable 1.2 mph - N/A   Mist
9:00 AM 75.2 °F - 60.8 °F 61% 30.04 in 3.1 mi Variable 1.2 mph - N/A   Mist
9:30 AM 77.0 °F - 57.2 °F 50% 30.04 in 4.3 mi NE 1.2 mph - N/A   Unknown
10:00 AM 77.0 °F - 59.0 °F 54% 30.04 in 4.3 mi ENE 4.6 mph - N/A   Unknown
10:30 AM 77.0 °F - 57.2 °F 50% 30.04 in 5.6 mi North 4.6 mph - N/A   Unknown
11:00 AM 80.6 °F 80.8 °F 57.2 °F 45% 30.01 in 5.6 mi East 4.6 mph - N/A   Unknown
11:30 AM 80.6 °F 80.8 °F 57.2 °F 45% 30.01 in - Variable 4.6 mph - N/A   Clear
12:00 PM 82.4 °F 82.0 °F 57.2 °F 42% 29.98 in - Variable 3.5 mph - N/A   Clear
12:30 PM 84.2 °F 83.0 °F 55.4 °F 37% 29.95 in 6.2 mi Variable 3.5 mph - N/A   Partly Cloudy
1:00 PM 84.2 °F 83.0 °F 55.4 °F 37% 29.95 in 6.2 mi NE 4.6 mph - N/A   Partly Cloudy
1:30 PM 86.0 °F 84.2 °F 53.6 °F 33% 29.92 in 6.2 mi Variable 2.3 mph - N/A   Partly Cloudy
2:00 PM 86.0 °F 84.5 °F 55.4 °F 35% 29.89 in 6.2 mi Variable 4.6 mph - N/A   Scattered Clouds
2:30 PM 86.0 °F 84.2 °F 53.6 °F 33% 29.89 in 6.2 mi Variable 3.5 mph - N/A   Scattered Clouds
3:00 PM 86.0 °F 84.2 °F 53.6 °F 33% 29.86 in 6.2 mi East 5.8 mph - N/A   Scattered Clouds
3:30 PM 86.0 °F 84.2 °F 53.6 °F 33% 29.86 in 6.2 mi ENE 5.8 mph - N/A   Scattered Clouds
4:00 PM 86.0 °F - 51.8 °F 31% 29.86 in 6.2 mi East 5.8 mph - N/A   Scattered Clouds
4:30 PM 84.2 °F 83.8 °F 59.0 °F 42% 29.86 in 5.6 mi South 6.9 mph - N/A   Unknown
5:00 PM 84.2 °F 83.8 °F 59.0 °F 42% 29.86 in 5.6 mi SW 10.4 mph - N/A   Unknown
5:30 PM 80.6 °F 81.8 °F 62.6 °F 54% 29.89 in 5.6 mi SW 5.8 mph - N/A   Unknown
6:00 PM 80.6 °F 81.8 °F 62.6 °F 54% 29.89 in 5.6 mi West 3.5 mph - N/A   Unknown
6:30 PM 77.0 °F - 64.4 °F 65% 29.92 in 5.0 mi Calm Calm - N/A   Unknown
7:00 PM 77.0 °F - 66.2 °F 69% 29.92 in 5.0 mi Calm Calm - N/A   Unknown
7:30 PM 75.2 °F - 66.2 °F 73% 29.95 in 5.0 mi Calm Calm - N/A   Unknown
8:00 PM 73.4 °F - 64.4 °F 73% 29.95 in 4.3 mi Calm Calm - N/A   Unknown
8:30 PM 73.4 °F - 64.4 °F 73% 29.95 in 4.3 mi Calm Calm - N/A   Unknown
9:00 PM 73.4 °F - 64.4 °F 73% 29.95 in 4.3 mi Calm Calm - N/A   Unknown
9:30 PM 71.6 °F - 64.4 °F 78% 29.95 in 4.3 mi Calm Calm - N/A   Unknown
10:00 PM 71.6 °F - 66.2 °F 83% 29.95 in 4.3 mi Calm Calm - N/A   Unknown
10:30 PM 71.6 °F - 66.2 °F 83% 29.95 in 4.3 mi Calm Calm - N/A   Unknown
11:00 PM 69.8 °F - 66.2 °F 88% 29.95 in 4.3 mi Calm Calm - N/A   Unknown
11:30 PM 71.6 °F - 66.2 °F 83% 29.95 in 4.3 mi Calm Calm - N/A   Unknown